Theta_e
345 344 343 342 342 342 343 343 344 344 345 344 345 346 346 345 346 344 344 344 343 343 341 341 342 342 340 339 341 342 343 343 343 342 342 342 340 335 336 336 337 338 340 342 343 343 342 342 342 342 341 341 341 341 340 340 340 340 340 340 339 338 337 337 338 338 337 337 336 336 335 335 334 333 332 332 332 333 333 334 336 336 336 336 336
346 345 343 342 342 342 343 342 342 343 345 345 345 346 345 345 344 342 340 341 341 341 340 339 337 339 339 339 340 340 340 339 337 338 337 338 337 334 334 335 335 334 334 337 339 341 341 341 342 342 342 342 341 341 341 340 339 339 339 339 338 337 337 338 338 337 337 337 337 336 336 335 335 334 333 333 332 332 333 334 335 336 336 336 336
346 345 343 342 342 342 341 343 343 342 343 344 346 346 346 344 342 341 339 338 338 338 337 338 337 336 338 337 338 337 334 332 330 330 330 330 332 332 331 333 332 331 330 329 331 333 335 337 339 339 341 341 340 340 340 339 339 338 337 337 338 339 338 338 337 337 337 337 337 336 336 336 335 335 333 333 333 332 332 333 334 335 336 336 336
345 344 344 342 342 341 342 343 342 342 342 343 344 345 342 340 340 339 340 339 337 337 338 337 335 334 335 334 333 331 327 326 325 325 325 326 327 329 329 330 330 330 327 326 326 328 330 332 334 335 336 337 338 338 339 339 339 337 337 336 336 337 337 337 337 337 337 337 337 337 337 336 336 335 334 334 334 333 332 332 333 335 335 336 336
344 345 344 343 342 342 341 341 341 341 342 342 342 342 341 339 338 339 337 338 336 336 334 336 334 333 332 330 328 324 324 323 323 323 322 323 323 325 325 326 327 327 325 324 322 323 325 326 328 330 332 333 334 336 337 338 338 337 336 335 334 334 336 336 336 336 337 337 337 337 337 337 336 336 335 335 335 333 333 332 333 334 335 335 335
344 343 343 342 342 342 341 339 339 341 342 342 340 340 337 336 336 334 333 334 333 333 333 333 331 330 328 326 325 323 322 320 320 320 320 320 321 322 322 322 323 325 325 322 320 320 321 322 324 325 326 328 329 332 334 335 334 333 334 334 334 333 334 334 335 335 335 336 334 334 335 337 336 336 336 335 335 334 333 333 333 334 334 335 335
344 344 343 342 341 340 338 338 339 340 338 339 338 336 336 333 333 332 332 331 330 329 331 332 329 327 326 325 322 321 320 319 319 318 317 319 319 319 319 319 320 322 323 322 317 317 318 318 319 321 321 323 325 328 331 331 331 330 330 331 331 331 331 332 332 333 333 334 334 334 334 334 336 336 336 335 334 335 334 333 333 333 334 335 335
344 343 342 341 339 338 337 337 337 336 336 336 336 334 333 330 329 330 329 327 327 326 330 329 327 325 324 322 320 319 317 318 318 317 317 317 316 317 317 317 318 318 319 319 317 313 315 316 316 316 318 319 321 324 327 328 328 328 328 329 329 328 328 329 330 331 331 332 333 332 333 333 333 335 337 336 335 335 334 333 333 333 334 334 334
342 341 340 339 336 335 334 335 335 334 334 334 332 332 332 328 327 326 326 325 323 324 328 328 325 323 321 320 318 317 316 316 316 316 316 315 315 314 315 315 315 315 315 315 315 312 311 313 313 313 314 316 317 320 322 325 326 327 327 326 327 327 327 328 328 328 329 329 331 331 331 331 331 333 335 336 335 334 334 334 334 333 334 334 335
339 338 337 335 335 334 333 334 333 333 332 332 331 331 330 330 326 325 324 324 322 324 326 327 324 320 318 317 316 314 313 314 314 315 314 314 313 313 313 314 313 313 312 313 313 310 310 310 311 311 311 312 314 316 318 320 323 325 325 325 324 324 324 325 326 326 327 328 329 328 328 328 330 331 331 333 334 335 334 334 334 334 333 334 334
336 336 336 333 333 332 332 332 332 331 331 330 330 329 328 327 325 323 323 321 321 323 326 325 322 319 316 315 315 313 312 312 312 311 312 313 313 312 312 312 311 311 311 311 311 309 309 310 309 309 309 311 312 313 315 316 318 322 323 323 323 323 322 323 324 324 325 326 326 326 325 326 328 329 329 330 330 330 332 333 333 334 333 334 334
334 335 335 334 332 331 331 331 330 330 329 329 328 326 326 325 324 322 322 320 320 322 326 325 321 319 316 315 313 312 311 310 311 311 311 311 312 312 311 311 310 310 310 310 310 310 308 309 309 307 308 308 309 310 312 313 315 318 321 320 321 322 322 322 324 324 323 323 324 324 323 324 325 326 328 329 329 329 330 330 333 333 333 333 333
332 333 333 330 329 329 329 328 328 327 326 325 326 325 324 323 321 321 321 319 317 320 323 325 321 317 317 316 316 315 312 310 309 309 309 309 310 310 310 309 309 309 309 310 309 309 308 308 307 307 308 307 308 309 310 311 312 315 318 318 318 321 322 322 322 322 322 321 322 322 322 323 323 323 325 326 327 327 328 328 329 332 333 333 334
330 330 330 329 329 327 328 326 325 324 323 323 323 323 323 322 321 317 318 316 314 316 318 322 321 319 316 316 317 316 315 312 308 307 308 308 309 309 309 309 308 309 309 308 308 308 307 307 307 307 307 307 307 308 309 309 310 313 314 314 315 317 320 320 320 321 322 321 320 320 320 321 321 322 323 324 325 326 327 327 328 328 332 333 332
326 326 325 327 328 327 325 324 323 322 321 320 321 321 321 320 320 318 314 315 314 315 317 318 319 322 323 320 316 315 315 312 312 308 306 307 307 307 308 308 307 308 308 307 307 307 306 306 306 306 306 306 307 307 308 308 309 311 312 312 313 315 317 319 318 320 320 320 320 320 318 318 319 320 321 321 322 323 324 325 326 327 327 331 332
324 324 325 326 326 324 323 322 321 321 321 319 319 318 319 319 319 317 318 312 310 310 314 315 317 319 313 314 313 314 306 305 308 309 308 305 305 306 307 307 307 307 307 305 306 307 307 306 305 306 306 306 306 306 307 307 308 310 310 310 310 312 314 315 316 317 319 319 318 318 316 316 317 318 319 319 319 319 321 323 324 324 325 327 332
323 323 324 323 323 323 322 321 320 320 320 318 317 317 317 317 318 317 317 313 309 310 310 313 312 314 316 311 308 303 300 304 307 304 308 302 303 303 306 306 306 306 304 303 304 306 306 305 305 306 306 305 306 306 307 306 308 310 310 310 310 310 311 312 313 315 316 318 317 317 316 315 315 315 316 316 317 318 319 321 322 323 324 325 326
321 322 322 322 321 321 321 319 319 319 318 317 317 316 316 315 315 315 314 315 313 309 306 309 310 310 310 310 312 305 302 302 308 299 306 305 304 303 303 304 304 304 304 303 302 303 305 304 305 305 305 305 305 305 305 305 306 307 309 308 308 308 308 309 312 313 315 315 317 317 316 316 314 314 315 315 315 316 317 319 320 321 323 323 324
321 321 321 320 320 320 320 319 318 317 317 317 315 315 314 314 314 314 313 313 314 309 308 306 306 307 306 307 307 308 309 307 300 304 300 302 303 302 302 303 304 303 302 302 302 303 304 305 304 304 304 305 304 304 305 305 305 306 308 308 307 306 306 306 308 310 313 314 315 316 316 315 315 313 315 315 315 316 317 317 318 320 320 321 322
320 320 320 319 319 318 319 318 316 316 315 314 314 314 314 314 314 313 312 311 311 309 307 307 303 302 307 305 304 305 305 305 306 300 298 299 298 303 303 304 304 303 303 303 303 303 303 304 303 303 303 303 304 304 304 305 306 306 306 306 306 306 306 306 305 304 307 311 313 314 314 314 315 314 315 314 314 314 315 316 316 317 318 319 320
319 319 319 318 318 317 317 317 316 314 314 313 313 313 313 312 311 310 309 308 308 308 306 304 305 304 304 304 304 302 303 303 304 303 299 300 297 298 300 303 304 302 303 304 304 304 303 303 303 303 304 304 304 304 304 305 305 305 305 305 306 306 305 305 304 303 304 306 310 312 313 313 315 315 314 313 313 313 314 314 315 316 316 316 317
318 318 317 317 317 317 316 316 315 314 313 313 312 311 311 310 309 309 308 307 307 306 305 304 304 305 305 305 304 304 304 303 302 302 302 301 296 296 299 299 298 301 303 302 303 303 303 303 303 302 303 304 304 304 304 305 305 305 304 305 306 305 305 305 303 303 303 303 306 308 310 311 314 315 313 313 313 312 313 314 315 315 315 315 315
316 317 317 316 316 317 316 315 315 314 313 312 311 309 309 308 308 308 307 306 305 305 305 305 304 304 304 303 302 301 300 299 300 301 301 299 298 297 299 297 296 298 300 302 302 302 302 302 302 302 303 303 303 303 304 304 304 304 304 304 305 306 305 304 302 302 303 303 304 307 309 311 312 312 312 312 312 312 313 314 314 314 313 313 313
315 315 315 316 316 314 314 313 313 313 312 311 311 310 309 308 307 306 306 306 306 305 305 304 303 303 303 303 302 302 302 301 301 301 300 299 300 299 296 298 300 299 300 302 303 301 301 301 301 302 302 302 302 303 303 304 304 304 304 304 304 305 305 304 303 302 301 303 303 305 308 309 309 309 311 311 310 311 312 313 313 311 310 312 312
313 313 314 315 314 314 313 312 312 312 311 310 310 309 308 306 306 305 305 305 304 304 302 303 303 302 301 303 302 302 301 303 303 302 302 302 300 298 298 299 296 298 299 299 298 301 300 301 301 301 301 302 302 303 304 304 303 304 304 304 304 304 303 304 304 302 302 301 302 303 305 306 308 308 308 308 308 309 310 310 305 304 306 306 307
313 313 314 314 314 314 313 312 311 311 310 310 309 308 307 304 305 304 304 304 304 303 302 303 303 303 303 301 302 301 302 303 302 302 301 300 298 298 298 300 299 297 299 298 299 296 297 300 301 301 302 301 302 303 303 303 304 303 303 304 305 304 303 303 303 302 302 302 301 302 302 303 304 306 306 305 305 305 305 303 304 304 304 304 304
312 313 314 314 314 313 313 312 311 311 310 309 308 307 307 305 305 305 304 305 304 303 302 302 301 301 303 302 301 301 302 301 302 301 301 300 299 299 298 295 296 298 297 299 299 298 296 299 300 300 301 302 302 303 303 303 303 303 303 304 305 304 303 302 302 303 302 302 301 300 301 302 302 302 302 302 303 303 304 304 304 304 304 304 304
313 313 314 314 313 312 312 311 310 309 308 307 306 306 306 305 304 304 303 304 303 302 302 302 302 302 302 302 301 300 302 301 302 301 300 301 300 300 298 297 294 292 296 296 297 296 298 297 299 300 300 300 301 302 303 302 303 303 304 304 304 304 303 302 302 302 302 302 301 301 301 300 300 301 302 303 304 304 304 304 303 303 303 303 305
313 313 313 313 312 312 311 310 310 309 308 307 306 306 305 305 304 304 303 304 303 302 302 301 301 301 301 301 300 300 301 302 301 301 301 301 301 300 299 297 296 293 291 292 295 295 297 297 295 298 300 300 301 302 302 302 303 303 303 303 303 303 303 302 301 301 302 301 301 301 300 301 301 301 303 304 304 304 304 303 303 302 303 304 305
312 312 312 312 311 311 310 310 310 309 307 306 305 305 305 304 304 304 304 304 302 302 302 301 301 301 301 300 300 299 301 300 300 301 301 301 299 300 299 299 298 294 293 291 293 297 296 298 298 296 298 299 301 301 302 302 303 302 302 302 303 303 302 302 301 300 300 301 300 299 298 299 300 301 302 302 302 302 302 302 302 302 302 303 305
312 312 311 311 311 310 310 309 309 307 307 306 305 305 305 304 304 303 304 303 301 301 302 302 301 301 300 299 300 299 301 301 300 300 301 300 299 299 298 299 298 298 295 294 291 296 298 296 298 299 298 299 300 301 301 301 302 301 302 302 301 302 302 302 302 301 301 301 300 300 300 300 299 300 300 301 302 302 302 302 301 301 303 303 302
311 311 310 310 310 310 309 308 307 307 306 305 305 305 305 304 304 303 303 302 301 300 300 301 301 301 299 299 299 299 300 300 300 300 299 300 301 298 298 298 298 298 297 295 293 293 297 297 298 299 299 299 300 299 300 300 301 302 301 301 301 302 302 302 301 301 301 300 300 300 301 300 299 299 300 301 301 301 302 300 301 301 301 300 300
311 310 310 309 309 309 308 308 307 306 305 305 305 305 304 304 303 303 302 301 300 300 300 300 301 300 299 298 298 299 300 300 300 300 299 299 299 299 299 297 297 298 297 295 293 293 297 299 299 298 300 300 298 300 299 299 300 300 301 301 302 302 301 301 302 301 300 300 299 299 298 298 298 301 301 300 301 300 300 300 300 300 300 300 299
310 309 309 309 309 309 308 307 307 306 305 305 305 304 303 302 303 303 302 301 300 300 300 298 299 300 300 298 298 299 300 299 300 298 298 298 297 296 297 297 296 296 298 295 294 293 293 297 297 299 299 300 297 300 299 298 299 300 299 300 301 301 301 301 301 301 300 300 299 298 299 299 298 299 299 298 298 298 299 298 298 297 298 298 295
310 309 309 309 308 308 308 307 306 306 305 304 305 304 303 302 301 302 302 301 301 300 299 298 298 300 299 299 298 300 301 300 300 300 300 299 298 298 298 298 297 297 297 297 296 294 294 295 298 297 298 298 298 298 299 299 300 299 298 299 299 300 301 301 300 300 299 299 298 299 298 298 298 298 297 298 298 298 298 298 298 298 297 297 297
308 309 309 308 308 308 307 307 306 306 305 304 304 303 303 302 302 301 302 302 301 300 299 298 299 299 299 298 299 300 301 300 299 299 299 299 298 298 297 297 298 296 298 298 298 296 295 294 297 296 297 297 298 299 299 299 299 298 299 299 300 301 300 300 300 300 299 299 299 298 299 299 298 298 297 297 298 298 298 297 297 297 297 297 297
307 307 307 308 308 307 307 306 306 305 305 304 303 303 304 304 303 302 301 301 302 301 300 299 299 299 299 299 299 300 300 300 299 298 299 299 298 298 297 296 296 297 298 298 298 297 296 295 295 297 298 298 299 299 299 297 298 298 300 299 298 299 300 301 301 300 300 299 299 299 299 298 298 298 298 298 298 298 297 297 297 297 298 298 297
307 307 307 307 307 306 306 306 306 305 305 304 303 302 303 304 304 303 303 302 301 301 301 300 299 300 300 299 300 301 300 299 299 299 299 299 298 298 297 296 296 297 298 298 298 297 297 295 296 296 298 297 297 298 299 298 297 296 297 298 299 300 300 298 298 299 300 300 300 300 299 299 299 298 298 298 297 297 297 297 297 298 298 298 298
307 306 306 306 307 306 306 306 306 306 305 304 304 304 303 303 303 303 303 302 302 302 301 300 300 300 300 300 301 301 301 300 299 299 299 299 299 298 297 297 297 297 297 297 297 297 296 296 296 297 296 297 298 295 297 299 298 297 295 296 296 298 298 298 297 299 299 299 299 298 298 299 299 300 298 297 297 298 298 298 298 298 298 298 298
306 306 306 306 306 306 306 306 306 306 306 305 304 304 303 304 304 303 303 303 302 302 302 301 301 301 301 301 301 302 301 300 300 300 300 298 298 297 297 297 297 297 297 297 297 296 296 295 295 295 296 296 296 298 298 298 296 296 297 295 293 294 296 298 298 297 298 298 298 298 299 299 299 299 298 298 299 299 299 298 299 299 299 298 297
306 306 306 305 304 304 305 305 305 306 305 305 305 305 304 304 304 303 303 302 302 302 301 301 301 301 301 301 302 301 302 300 298 297 297 296 297 296 297 297 297 297 297 297 296 295 295 295 295 296 295 295 295 295 294 294 293 293 295 295 294 295 296 296 297 299 298 297 297 297 297 297 297 298 299 299 300 300 300 299 299 300 300 297 296
305 305 305 305 305 304 304 304 305 305 306 306 304 301 302 304 304 304 304 304 302 302 301 301 301 301 300 301 302 299 299 299 297 295 294 294 295 297 296 296 295 295 296 295 295 295 295 294 294 294 294 294 294 295 295 295 296 296 295 295 294 295 295 295 296 298 299 298 295 294 296 298 297 297 297 297 300 300 300 300 301 299 298 296 296
303 304 304 303 304 304 304 304 304 305 305 304 297 294 295 298 304 305 304 303 303 302 301 301 301 301 300 300 302 301 301 300 300 296 295 293 293 293 293 293 293 295 294 294 294 295 294 294 295 295 294 294 294 296 295 295 296 295 295 295 295 294 292 291 290 295 299 297 295 294 294 297 296 294 296 297 298 299 299 300 297 297 297 296 296
303 303 303 303 304 304 305 305 305 305 306 300 293 293 294 294 300 305 305 303 303 302 302 301 301 301 301 300 301 302 301 300 300 299 298 296 293 293 292 292 292 292 291 293 293 293 294 294 294 295 295 294 294 295 295 295 294 295 296 295 294 293 292 291 291 291 295 298 294 292 292 295 296 295 295 296 297 299 299 298 296 296 296 296 296
302 302 303 303 303 303 304 304 304 305 305 295 293 293 293 293 295 301 304 304 302 302 302 302 301 301 301 299 300 302 301 298 299 298 298 298 296 294 295 295 294 293 290 289 291 294 295 295 295 295 295 295 294 295 296 295 296 294 295 294 294 293 293 292 292 292 295 298 295 292 291 294 295 293 293 296 298 299 298 298 297 296 296 296 296
301 301 302 302 302 303 303 304 304 305 305 295 293 293 293 292 292 298 304 305 304 303 302 302 302 302 300 300 300 300 301 301 300 299 298 298 298 298 298 297 297 296 294 293 292 292 294 297 296 295 296 297 295 296 297 297 295 293 293 293 295 294 294 293 295 296 297 298 294 292 290 292 294 293 293 295 297 297 298 297 296 296 296 296 296
300 300 301 301 302 302 303 304 304 304 304 293 292 292 292 292 292 297 306 305 304 304 304 303 302 302 301 302 301 300 300 300 299 297 298 298 298 298 297 297 296 297 298 296 296 296 296 297 297 297 297 297 297 296 297 297 296 296 296 296 296 296 296 297 296 296 296 298 295 292 287 291 294 293 293 294 295 295 297 296 296 296 296 296 296
300 300 301 301 301 302 303 303 303 303 301 291 291 291 291 291 292 303 304 304 303 303 303 302 302 302 301 302 301 300 300 299 296 290 293 298 298 297 297 297 297 298 297 296 293 293 295 296 296 296 296 296 293 295 296 296 296 296 297 298 298 296 294 292 290 292 293 296 296 292 289 289 293 291 291 293 294 294 295 297 296 296 296 296 295
297 298 300 301 302 301 301 302 303 302 300 293 291 291 291 291 296 303 304 302 302 302 302 302 301 301 302 302 301 300 300 299 294 289 290 293 298 297 297 297 297 297 296 297 294 293 292 291 291 291 290 290 291 291 291 291 295 295 297 295 293 294 292 289 290 290 291 294 295 293 290 288 291 291 291 292 293 292 294 295 298 295 295 295 295
297 298 300 300 301 301 301 301 302 301 301 296 290 291 291 291 298 303 302 302 301 301 301 301 301 301 302 299 299 301 300 299 291 290 289 296 298 297 297 296 296 296 296 297 297 297 294 293 293 292 292 291 292 292 293 293 292 295 296 293 294 294 291 291 289 290 291 293 293 294 289 289 290 292 290 291 292 293 293 295 295 296 296 296 296
298 299 299 299 299 300 301 302 300 301 300 296 290 291 291 291 298 302 301 301 300 300 300 299 300 300 300 298 296 297 299 297 288 290 289 295 298 298 297 297 295 295 296 296 296 295 295 296 297 298 297 297 300 300 300 294 293 296 298 296 296 294 292 291 291 290 289 291 293 295 287 288 289 290 290 288 286 289 292 293 294 295 296 298 299
Wind_Speed
2 3 2 3 3 3 2 3 3 3 2 2 2 3 3 3 3 3 3 3 3 3 3 4 4 4 4 5 5 5 5 5 5 6 6 7 8 13 18 18 17 16 16 15 14 14 14 15 14 12 10 10 9 10 10 10 11 10 11 11 10 11 10 10 12 13 13 16 15 14 13 13 13 13 12 11 11 12 11 10 9 10 11 10 9
3 3 3 3 3 3 3 3 3 2 2 2 2 2 2 3 3 3 4 3 4 4 3 4 5 5 4 5 5 6 6 6 7 7 7 7 7 10 18 18 20 19 19 19 20 19 18 18 19 17 16 16 15 14 14 15 14 15 14 12 8 8 9 11 12 13 13 14 16 15 15 15 14 14 13 12 11 12 12 11 10 10 11 11 10
2 3 3 3 3 3 3 3 3 3 2 2 2 3 3 4 4 3 4 4 4 4 3 4 4 5 5 6 6 6 7 7 7 7 7 7 6 7 12 20 19 20 20 20 19 19 20 19 19 20 19 19 17 17 17 16 16 16 17 16 14 8 8 10 12 13 13 13 13 15 16 16 15 14 13 12 12 12 12 12 11 10 10 11 11
4 3 3 4 4 4 3 3 3 3 3 2 2 3 3 4 5 4 4 4 4 4 4 4 5 5 6 7 7 7 7 7 7 8 8 8 7 7 7 11 19 20 20 21 20 20 20 20 20 21 20 20 20 20 20 18 18 17 17 18 18 17 14 12 12 13 13 13 13 13 17 16 15 15 14 12 12 13 12 13 12 9 9 11 12
4 4 5 4 4 4 4 4 4 3 2 3 3 2 3 3 4 3 3 3 4 4 4 5 6 6 6 7 7 8 7 7 7 7 8 8 7 7 7 8 8 15 21 21 21 21 21 21 21 21 20 20 20 21 21 21 20 20 19 19 19 20 19 15 15 16 15 13 12 14 15 17 18 17 15 13 13 13 12 13 12 10 9 11 12
5 5 5 5 4 4 4 4 3 3 3 2 3 3 4 4 4 3 4 3 4 4 4 5 6 6 7 8 7 7 6 7 7 7 7 8 7 8 8 8 7 7 8 18 21 20 20 20 21 21 21 21 21 22 21 21 21 21 21 20 19 21 21 19 17 18 18 17 16 17 15 16 19 17 17 15 13 13 12 13 13 12 10 10 11
6 5 5 5 5 5 4 3 3 3 3 3 3 3 4 5 4 3 3 4 4 5 5 5 6 7 7 6 7 7 7 7 7 8 8 8 8 8 8 8 8 8 7 7 13 20 19 20 20 21 21 21 21 21 21 22 22 22 22 22 21 21 22 22 20 20 19 18 16 17 18 20 15 18 19 16 14 13 13 13 13 13 12 11 10
6 6 5 4 4 4 3 3 3 3 3 3 3 4 4 5 5 4 3 4 4 5 4 6 7 7 7 7 7 7 7 7 8 8 8 8 8 9 8 9 8 8 8 7 7 11 19 18 19 20 21 21 21 21 21 21 22 21 21 22 22 22 22 23 22 21 22 21 19 19 20 21 23 19 19 18 16 15 14 14 14 14 13 12 11
6 5 5 5 4 4 4 3 3 3 3 3 4 3 3 4 4 4 3 2 3 5 5 6 7 7 7 8 8 7 7 7 7 7 7 9 9 8 8 9 9 9 8 8 8 8 12 17 17 18 20 20 20 20 20 20 20 20 21 22 23 22 22 23 23 23 22 22 21 21 21 21 22 24 19 15 15 17 17 15 14 14 14 15 13
6 5 5 5 5 4 4 3 3 2 3 3 4 3 3 3 4 4 4 3 3 4 5 6 7 7 8 8 8 8 7 7 7 7 7 8 8 8 8 8 8 8 8 8 8 9 9 11 15 14 18 19 19 19 19 20 20 20 20 21 21 22 22 23 24 23 23 22 22 22 22 22 21 22 23 18 16 18 18 17 16 15 15 15 14
6 5 5 5 4 4 4 3 2 2 2 3 3 4 4 4 4 4 4 5 4 4 4 7 7 8 8 9 9 9 8 7 7 7 7 8 8 7 7 8 8 8 8 8 8 9 9 9 9 9 10 18 18 19 18 19 20 20 21 21 21 21 21 21 22 22 22 22 23 22 22 23 22 21 22 22 21 18 17 19 21 18 15 16 16
5 5 5 4 4 4 4 3 3 2 3 4 3 4 4 5 6 4 4 5 6 4 4 7 9 10 10 9 9 9 10 9 9 8 7 8 7 7 7 7 7 8 9 8 8 8 9 9 8 9 8 11 16 17 17 17 19 20 21 22 21 21 21 20 21 21 22 22 22 22 23 23 22 22 20 21 22 22 23 24 19 21 19 19 17
5 4 5 4 4 4 3 3 3 3 3 4 4 4 4 5 5 5 5 5 6 5 3 4 8 8 7 8 8 8 9 10 11 9 9 7 7 7 7 7 7 7 7 7 8 8 8 9 8 8 9 8 10 14 16 16 18 19 20 22 22 21 21 21 21 22 22 22 22 22 22 23 22 22 22 22 23 23 23 22 24 19 21 21 19
4 4 4 3 4 4 4 4 3 4 4 4 5 4 4 4 3 5 6 6 6 6 3 1 6 5 7 6 5 5 7 9 11 10 9 8 7 8 7 8 7 7 6 6 7 8 9 9 9 9 9 9 9 9 10 11 14 19 19 21 22 22 22 21 21 22 22 21 21 21 22 22 22 23 23 22 22 22 23 22 22 24 19 23 20
5 4 4 4 4 4 4 3 4 3 4 4 4 5 4 5 4 3 4 5 6 6 6 5 1 2 2 5 4 5 4 6 8 9 9 8 7 8 7 8 8 7 6 7 7 8 8 9 9 9 9 9 9 9 9 10 13 16 17 20 22 22 22 22 21 22 22 21 21 21 22 22 21 21 22 23 22 21 22 22 22 22 25 20 23
5 5 4 4 4 5 4 4 4 4 4 4 5 6 5 4 4 3 2 5 6 8 8 7 3 2 4 1 2 2 5 5 5 5 6 9 8 8 7 6 7 7 6 7 7 7 7 8 9 9 9 9 8 9 9 9 13 13 15 19 22 22 22 21 21 22 22 21 21 21 22 21 22 21 21 22 22 21 22 22 22 23 22 25 17
5 5 5 5 5 4 5 5 5 5 4 5 5 6 5 5 4 3 3 5 6 5 7 8 9 6 2 3 3 2 3 4 4 5 4 6 9 8 7 7 7 7 7 8 8 7 6 8 8 9 9 9 9 9 8 10 10 10 11 16 21 21 22 21 21 22 22 22 21 21 21 21 21 21 21 21 21 21 21 21 22 22 22 22 23
5 5 6 5 6 5 5 6 6 5 5 6 6 6 6 6 5 4 5 4 5 6 7 8 9 11 11 8 5 4 2 2 4 4 3 5 6 7 8 8 7 7 8 9 9 8 7 7 9 8 9 9 9 8 8 9 10 9 9 13 21 21 21 20 21 22 23 22 21 21 21 20 21 21 21 21 20 20 20 20 22 22 21 22 22
6 6 6 6 6 6 6 6 6 6 6 6 6 6 5 5 4 5 3 2 1 6 7 6 7 10 10 10 10 8 6 2 4 3 4 4 5 5 6 7 8 7 7 8 8 7 6 6 7 7 7 7 8 8 8 8 10 10 12 17 19 20 20 20 20 21 22 23 22 22 22 21 20 21 21 20 19 19 18 19 19 20 21 20 21
6 6 6 7 6 6 6 6 7 6 6 7 6 5 6 6 6 6 5 5 5 5 6 5 6 6 6 8 9 9 8 9 6 4 2 2 4 4 5 4 5 6 5 5 6 7 7 6 7 7 7 8 8 8 8 9 9 9 9 17 18 18 20 20 20 20 21 22 22 22 22 21 21 21 20 21 20 20 19 18 19 20 20 20 21
6 6 7 7 6 6 6 7 7 7 7 7 7 7 8 7 6 6 6 6 6 6 7 6 6 5 4 5 5 6 7 7 5 5 5 2 4 5 4 1 2 6 5 4 4 5 6 7 6 7 7 7 8 8 9 9 8 9 10 17 18 18 19 20 18 17 17 21 22 22 22 22 21 21 21 21 21 21 20 19 18 19 19 20 21
6 7 7 8 7 7 7 8 7 7 7 8 8 8 7 8 8 7 7 8 7 7 8 7 7 6 6 4 4 4 4 4 6 4 4 6 5 7 6 7 5 3 4 4 3 2 4 6 6 7 7 7 8 8 8 9 8 8 12 18 17 17 18 20 17 17 18 20 21 22 22 22 22 22 22 21 22 22 21 20 19 18 19 19 20
6 6 7 7 7 7 7 7 7 7 7 7 7 7 7 7 8 9 9 9 8 9 9 9 7 8 8 7 7 7 6 7 6 6 6 6 5 6 6 6 5 5 5 5 4 2 3 5 6 6 7 8 8 9 9 9 9 11 17 17 18 17 18 18 17 17 18 22 21 22 22 22 22 22 22 22 22 22 22 21 20 20 19 18 18
6 6 6 6 6 6 7 7 7 7 7 6 6 7 7 7 7 7 8 8 8 8 8 9 9 8 9 7 7 7 7 7 6 6 6 6 5 4 5 5 1 2 3 4 2 4 4 6 7 7 7 8 9 10 10 10 9 14 15 18 18 18 17 19 18 18 18 19 21 21 23 23 23 23 23 23 23 23 22 22 21 22 21 19 18
6 7 6 7 7 7 7 6 6 6 7 7 7 7 7 7 8 8 8 9 8 9 9 9 9 8 7 7 7 7 7 6 6 6 5 4 5 4 4 2 3 3 4 3 5 3 2 6 8 7 8 9 10 10 9 9 10 12 17 14 19 17 17 18 20 20 18 18 18 22 23 24 24 24 24 24 24 23 23 23 21 20 21 19 18
7 7 6 7 6 7 7 8 7 8 8 8 8 7 8 8 8 9 9 8 9 10 10 10 9 9 8 8 8 7 7 6 6 6 6 6 6 7 6 4 1 4 3 4 4 6 5 6 7 7 8 10 10 11 10 11 11 13 17 16 14 15 16 18 19 20 20 18 18 19 21 23 24 24 25 25 24 23 23 23 22 22 19 17 17
7 6 7 7 8 8 8 8 7 8 8 7 7 8 8 8 8 8 8 8 9 9 9 10 10 11 10 8 8 8 7 7 6 6 6 6 6 7 8 10 7 4 6 3 4 3 5 9 9 7 9 10 11 11 12 12 12 15 18 13 11 14 14 17 19 21 21 20 18 19 19 20 21 21 21 22 23 23 24 25 25 23 22 20 20
7 7 7 8 8 9 8 8 8 8 8 8 8 8 8 8 8 8 9 6 9 10 9 10 10 11 10 9 9 8 7 6 6 6 6 6 6 6 7 8 8 10 10 7 7 7 5 9 9 9 12 12 12 12 13 14 11 17 17 12 12 13 15 15 18 21 22 21 21 20 20 20 20 21 22 24 26 25 26 25 25 23 21 21 20
7 7 8 8 8 8 9 8 8 8 8 8 8 8 8 8 8 9 9 8 9 9 8 9 9 9 9 10 9 7 7 6 6 6 6 6 6 6 7 7 6 6 7 9 8 8 10 11 10 11 13 13 12 12 12 12 13 15 14 13 14 13 15 18 20 20 19 19 19 19 19 20 21 23 25 26 27 27 26 25 24 24 23 21 20
7 7 8 9 8 9 8 8 8 8 8 8 8 9 9 8 9 8 8 8 9 8 8 9 9 8 8 8 7 7 6 6 6 6 6 6 6 6 5 4 5 5 5 7 9 6 8 9 10 11 12 13 11 11 11 12 15 17 15 15 14 14 18 21 21 18 17 17 17 18 18 19 21 24 27 27 26 27 26 25 23 23 23 22 20
8 8 9 9 8 8 8 8 8 8 8 8 8 8 9 9 8 8 7 8 8 9 8 8 7 7 8 8 7 7 6 6 6 6 5 5 5 5 5 3 3 3 5 5 8 5 6 10 9 10 12 14 12 12 11 12 13 16 15 15 15 18 24 19 17 17 16 16 16 17 21 22 21 21 23 26 26 27 26 24 23 22 22 22 19
8 9 9 9 9 9 8 9 9 8 9 8 8 8 8 8 8 8 7 9 10 10 8 7 6 7 8 9 7 6 5 6 6 6 5 5 4 4 4 4 3 2 3 5 6 11 9 8 10 10 12 13 13 12 13 12 12 16 15 15 17 20 15 14 17 17 16 16 16 17 19 20 20 22 23 25 25 25 24 23 22 21 21 20 17
8 9 9 9 9 9 10 9 9 9 9 8 7 8 8 8 8 8 8 9 10 9 8 8 7 7 8 8 8 7 6 6 5 5 5 5 5 4 4 4 4 3 4 5 7 10 9 7 9 10 11 12 12 13 14 14 14 14 15 15 17 15 14 14 16 19 18 17 16 16 18 19 20 22 25 24 24 24 22 20 20 19 18 18 17
8 9 10 8 8 9 9 10 9 10 9 9 8 8 9 9 8 6 8 9 10 9 8 8 8 6 7 8 8 7 5 6 6 7 6 6 6 6 5 5 5 5 4 5 7 8 11 10 9 9 10 12 12 12 13 16 15 14 16 16 14 15 14 17 17 17 19 17 17 19 19 19 20 21 22 22 22 21 20 20 19 17 18 18 18
7 8 9 9 9 9 9 9 10 9 10 9 8 9 9 10 9 8 8 9 9 8 8 8 8 7 7 7 7 5 4 6 6 6 6 6 6 6 6 5 5 5 5 5 6 8 10 10 10 11 11 11 11 14 14 13 14 14 16 16 16 14 16 17 17 16 18 17 19 19 19 19 21 21 21 22 22 21 21 20 19 18 17 16 17
8 7 8 9 9 9 9 9 9 9 9 9 9 9 9 9 10 10 9 8 8 8 8 7 7 7 7 6 6 5 5 6 6 6 6 7 6 6 7 6 6 6 6 5 6 7 8 10 11 11 11 11 11 12 12 12 13 14 14 15 15 18 18 17 19 17 18 20 18 19 18 19 20 20 20 20 20 21 20 20 19 19 18 17 17
8 8 7 8 8 9 8 10 10 10 10 10 9 9 8 8 9 8 8 8 7 8 7 7 6 6 6 6 5 5 6 6 6 7 7 8 7 6 7 7 6 6 6 6 7 7 8 10 10 10 10 10 11 12 12 14 14 13 13 14 15 18 18 19 16 16 20 18 18 18 18 19 20 19 19 19 20 20 19 20 20 19 19 18 17
8 8 9 7 8 9 9 10 10 10 9 9 10 9 9 8 8 7 7 7 7 7 6 6 6 5 5 5 5 5 6 7 6 6 6 7 7 7 8 7 7 7 7 7 7 8 8 9 11 11 10 12 11 10 13 14 15 15 14 13 16 15 15 15 16 14 13 15 15 16 17 19 21 20 19 17 18 18 19 19 19 18 18 18 16
9 8 8 8 6 8 9 9 9 9 9 9 9 8 8 8 8 8 7 7 6 5 5 6 5 5 5 5 5 5 6 6 7 7 7 7 6 8 7 7 7 8 8 7 8 8 8 10 9 10 11 10 11 13 14 13 13 13 15 19 17 16 16 17 18 17 17 17 18 17 17 17 19 18 18 17 16 17 16 15 16 17 16 15 14
9 9 9 8 7 7 8 8 8 7 8 8 8 8 8 8 7 7 7 7 6 6 5 5 4 4 4 4 5 6 6 6 6 6 6 6 7 7 7 7 8 8 7 8 8 8 9 9 10 12 10 11 11 11 12 13 13 13 12 15 18 19 19 18 16 18 17 16 17 17 17 18 18 19 18 17 16 14 15 16 15 14 15 12 10
6 8 8 8 8 7 7 7 8 7 7 7 6 7 8 8 7 7 7 7 6 6 5 5 4 3 3 4 5 6 6 6 7 6 5 4 6 7 8 8 8 8 8 8 8 8 9 9 10 10 11 12 12 14 14 14 15 16 16 16 16 17 18 19 17 15 14 17 17 17 16 17 17 17 16 15 15 18 16 15 15 13 10 9 11
7 7 8 7 8 8 8 8 7 6 6 4 6 8 7 7 7 6 6 6 6 6 5 4 4 3 3 3 4 6 5 5 5 5 4 5 4 4 5 7 7 7 7 8 8 9 9 10 11 12 12 12 14 14 13 14 14 15 18 19 18 18 17 17 18 15 16 18 19 19 18 16 17 17 15 16 15 15 14 13 13 14 15 15 16
8 8 7 8 8 8 9 8 8 6 5 5 9 8 7 7 7 7 7 6 6 5 5 4 3 3 2 3 4 4 3 3 3 3 5 6 7 7 6 4 3 4 6 7 8 8 9 9 10 11 11 13 14 13 13 14 14 15 16 16 18 17 17 18 19 18 14 19 17 19 18 16 15 17 17 16 16 15 15 14 17 19 19 17 16
8 7 8 8 8 7 7 8 8 7 6 7 11 9 8 9 7 6 6 6 6 5 4 4 3 2 2 2 3 3 3 4 4 5 5 5 7 8 9 7 4 2 0 2 6 8 9 9 10 11 11 12 13 13 14 15 15 15 15 16 17 17 17 17 17 18 18 18 18 17 17 15 15 16 16 16 15 15 16 17 17 17 16 16 16
8 8 9 8 8 7 7 9 8 7 6 8 9 10 9 9 8 7 6 6 6 5 5 4 3 1 1 2 3 3 2 2 3 6 6 7 7 8 7 8 5 6 7 4 5 4 7 8 9 11 11 12 13 13 14 15 15 15 16 15 17 18 17 17 18 19 20 18 16 17 17 16 15 17 17 16 16 16 17 17 17 18 19 18 17
8 8 8 9 8 8 8 8 8 7 6 8 9 10 10 9 9 6 6 6 5 5 5 4 3 2 2 2 2 3 3 3 4 6 6 7 8 8 8 9 8 9 7 7 9 8 8 7 8 10 12 11 11 13 14 14 15 16 16 16 18 18 19 19 20 19 18 16 17 17 16 17 17 18 18 17 15 15 15 19 19 18 18 16 15
9 9 9 9 7 8 7 7 7 6 5 9 9 10 10 10 9 5 5 4 4 5 4 4 3 2 2 2 2 2 2 3 4 5 6 7 7 7 8 8 8 8 7 9 9 8 8 7 8 9 11 11 11 13 12 12 13 13 14 16 17 17 17 17 15 14 15 15 15 16 17 18 17 18 18 18 17 16 15 18 19 17 17 15 13
6 6 6 7 8 8 7 7 8 7 6 8 9 10 10 10 9 5 5 5 5 5 5 5 4 3 2 2 2 2 2 3 5 5 5 6 7 8 9 9 9 8 7 7 7 7 7 7 8 9 10 11 13 13 13 11 11 13 13 12 13 15 16 16 16 16 14 14 14 17 16 17 15 15 18 17 16 17 17 15 17 16 15 15 15
7 8 8 8 7 8 8 8 9 7 7 7 8 10 10 11 8 6 6 6 5 6 5 5 4 3 2 2 2 1 1 3 5 6 6 6 6 7 8 9 8 8 9 9 11 12 12 12 12 13 14 15 15 16 15 14 11 12 11 12 15 17 17 18 18 16 16 14 12 16 16 16 16 16 18 18 18 17 15 15 14 17 18 18 17
8 8 8 7 7 7 8 8 8 8 7 7 9 9 10 11 8 7 7 6 6 6 5 4 4 3 3 3 1 1 1 3 5 4 6 5 6 7 8 8 9 10 11 10 9 9 12 12 12 12 13 14 14 15 13 14 15 12 12 13 15 16 16 15 15 17 16 13 14 17 15 15 17 16 18 18 17 11 13 13 16 17 18 16 14
8 8 8 8 7 6 7 7 7 8 7 7 8 9 9 9 7 7 7 7 7 7 6 5 4 3 4 4 2 2 2 3 4 3 4 4 5 6 7 7 8 9 9 10 10 11 11 11 11 11 11 11 11 11 11 14 14 12 11 11 11 14 16 17 17 18 16 12 15 17 16 16 17 16 17 17 17 12 9 14 16 15 15 13 13
Wind_Direction
93 87 82 68 74 72 74 71 63 48 18 59 48 64 67 65 68 74 79 82 83 75 71 66 60 52 45 53 46 46 47 51 52 57 59 72 70 52 51 54 54 52 54 49 47 40 35 34 34 33 32 26 17 6 4 356 353 342 333 331 326 320 315 311 305 301 288 258 264 268 262 268 270 264 266 265 269 271 274 279 284 278 267 263 260
100 100 90 86 91 102 83 70 67 54 41 64 58 50 63 73 75 73 78 78 73 67 62 66 62 52 44 59 55 55 56 56 55 58 67 74 69 64 50 57 55 51 43 42 44 44 46 42 39 39 40 42 45 44 45 44 42 37 26 6 332 312 310 316 313 306 303 291 267 264 262 262 265 269 269 266 263 267 269 272 277 278 268 261 259
108 106 106 111 106 90 82 78 68 54 53 60 44 50 55 53 49 52 58 63 65 58 53 64 58 62 55 60 62 65 63 61 60 59 61 59 59 62 59 57 56 53 48 44 41 40 39 37 35 33 36 36 39 42 39 35 35 38 37 28 19 350 322 325 325 318 310 303 283 263 263 261 260 261 261 260 260 261 264 266 267 271 274 262 258
112 112 102 106 106 90 81 81 72 63 62 62 52 53 65 66 61 60 49 51 62 60 56 59 62 62 68 69 69 69 65 61 60 57 57 56 55 52 54 65 58 54 50 45 41 39 37 37 35 33 31 28 29 33 30 29 28 27 30 30 23 20 16 9 357 341 323 309 305 284 265 264 261 259 258 254 254 259 259 262 260 259 265 263 256
116 102 106 108 109 104 87 79 80 72 65 58 69 69 79 80 72 61 54 57 58 59 62 70 73 68 67 69 71 68 64 65 61 58 56 55 53 53 54 50 56 58 51 44 41 37 35 34 34 31 30 29 26 26 27 25 26 24 26 28 23 15 16 17 18 20 14 355 327 309 286 267 265 263 260 255 252 253 254 257 255 248 250 259 258
123 116 111 111 110 104 91 82 56 56 48 43 58 44 58 60 55 61 49 48 54 50 60 67 71 76 70 68 66 64 65 65 62 61 58 55 53 50 49 47 43 42 52 49 40 35 33 32 32 30 28 27 26 24 22 22 24 21 23 22 22 14 10 12 15 16 18 20 16 7 346 295 268 264 260 257 256 251 246 245 249 245 238 243 250
121 118 114 114 112 104 89 76 67 59 61 51 56 61 58 52 34 46 55 50 54 52 58 69 76 72 69 68 69 68 66 62 59 57 58 56 52 49 47 44 41 39 37 45 45 35 30 31 31 29 27 25 25 26 23 19 23 21 18 16 20 16 9 9 12 13 11 7 8 3 360 1 325 270 261 249 249 247 245 246 249 249 242 237 242
120 121 120 115 104 92 80 69 57 69 60 56 52 63 60 59 44 27 40 45 50 68 70 83 80 75 68 68 66 64 64 61 57 57 53 54 52 50 48 46 42 40 35 39 37 35 28 28 29 29 27 24 23 23 23 22 22 20 17 13 16 18 10 6 10 9 9 1 4 7 2 1 358 331 272 253 248 250 245 245 246 249 247 240 237
105 104 102 106 100 89 76 64 49 61 64 58 63 56 64 70 59 42 29 43 51 77 84 90 85 78 72 69 64 63 61 57 57 59 58 57 55 53 52 46 46 42 40 37 36 26 27 24 25 27 26 24 21 21 22 21 20 19 18 14 13 14 11 5 7 9 7 360 0 7 3 359 356 359 336 262 252 251 252 245 244 248 250 244 236
101 99 93 89 89 91 85 68 73 70 72 70 69 66 63 65 73 50 34 27 46 68 95 96 95 87 77 70 67 64 64 61 60 59 59 58 56 54 52 49 45 43 41 39 39 32 21 21 20 23 25 20 19 19 19 20 18 18 17 15 13 12 10 5 4 5 6 359 357 7 1 356 356 358 3 341 276 267 261 254 243 241 250 251 244
100 100 104 103 101 98 95 81 83 82 85 89 84 72 70 65 68 70 55 45 47 57 92 106 100 94 84 76 73 68 67 64 63 62 59 58 58 56 54 53 51 45 41 40 40 36 29 21 19 14 17 15 14 15 16 18 16 15 15 13 11 10 9 6 2 2 3 360 354 4 359 355 355 358 355 358 0 348 329 284 256 243 240 252 246
100 102 100 99 101 94 95 92 82 71 63 59 56 59 60 68 60 51 61 72 55 72 109 118 103 95 94 86 79 79 72 69 65 60 60 56 55 53 54 53 52 50 45 40 41 38 33 28 24 18 10 9 10 12 13 14 15 13 14 12 8 7 6 5 2 1 360 0 354 359 357 354 353 354 352 355 354 351 349 351 322 261 236 237 242
90 96 103 104 100 99 88 74 72 68 68 64 62 70 66 70 69 50 35 53 52 45 67 134 121 108 102 98 95 86 82 73 65 61 56 54 54 55 52 50 47 45 46 44 40 38 36 32 27 22 14 8 4 6 8 10 15 10 11 10 6 4 4 3 1 360 359 358 355 355 355 351 351 351 352 354 352 347 349 350 348 320 257 240 235
81 78 86 90 97 88 77 71 68 73 72 70 68 73 69 65 65 71 44 49 54 23 27 223 171 155 152 141 127 103 82 75 65 57 55 55 54 55 54 50 45 45 42 45 45 40 36 33 30 24 19 13 10 5 5 4 9 5 9 9 6 3 2 2 0 358 357 357 354 353 352 351 350 350 350 351 349 348 348 347 346 350 310 248 235
78 75 72 69 81 86 79 73 66 75 83 75 72 69 58 59 52 74 77 58 62 43 34 335 217 146 151 167 154 158 146 98 81 65 59 56 55 54 54 53 47 43 43 42 42 40 37 32 30 25 22 16 13 9 7 4 3 359 6 8 6 4 1 360 358 356 356 356 353 352 351 348 350 352 347 346 348 349 345 342 347 347 351 302 238
84 90 86 81 80 87 87 78 73 62 69 79 70 67 62 64 58 57 57 83 53 41 28 32 19 188 177 265 122 228 144 84 80 74 69 59 55 57 50 49 47 47 45 43 40 38 35 31 26 27 21 19 14 10 10 4 358 357 4 8 4 2 360 358 355 353 353 353 351 350 349 347 348 348 347 344 347 347 344 343 343 347 345 348 273
80 82 90 86 83 83 85 82 78 68 70 73 67 58 59 59 55 55 54 93 95 75 41 35 44 18 357 167 160 107 41 94 124 76 48 59 54 53 51 46 48 45 45 45 41 41 35 33 28 24 21 16 13 11 6 4 359 354 356 5 360 358 357 354 352 352 349 350 348 348 347 346 345 344 342 346 347 344 342 342 342 341 346 344 347
84 89 89 89 84 83 85 89 81 73 68 71 72 70 59 64 54 70 75 75 108 102 82 49 45 43 47 47 17 42 101 101 228 114 120 73 69 54 47 47 46 51 48 44 40 34 27 30 25 25 20 14 10 7 1 2 358 354 351 357 352 354 352 350 349 349 346 345 345 345 344 344 342 340 340 343 343 341 340 340 339 340 340 346 340
89 89 89 91 90 87 85 83 82 81 77 75 71 67 67 60 63 69 66 65 107 104 97 96 74 53 51 50 53 48 31 358 78 148 153 136 62 48 51 47 44 46 46 45 38 34 24 19 20 17 14 11 7 2 358 356 355 349 346 349 347 347 347 345 346 344 342 340 340 341 341 341 340 338 339 341 340 340 339 338 337 336 339 338 341
94 92 95 94 92 88 86 84 83 79 79 75 74 73 78 70 68 72 68 61 63 86 86 68 82 80 61 71 71 63 56 52 27 37 45 116 73 91 63 39 56 47 39 34 35 30 27 15 17 13 12 8 5 1 357 352 350 346 346 345 340 341 342 341 340 337 336 335 334 335 336 337 335 336 338 338 337 336 338 336 334 335 336 335 339
88 92 90 90 89 88 83 83 83 83 83 82 77 76 76 80 76 72 70 66 63 67 80 74 76 91 102 85 82 79 74 66 60 39 42 51 68 35 17 84 137 56 36 23 21 17 18 14 8 7 3 1 359 357 352 347 345 343 344 339 333 334 336 337 335 329 328 329 329 330 331 330 331 334 335 335 333 334 334 334 331 334 332 335 332
90 88 90 90 90 89 86 84 84 83 81 84 87 84 82 79 76 78 78 78 68 68 73 78 74 68 65 71 77 90 86 79 53 51 61 50 49 23 10 7 25 53 36 12 352 359 4 10 2 4 2 357 356 351 347 340 338 336 338 331 328 329 331 331 329 324 324 324 325 325 326 326 328 330 331 331 332 330 331 329 332 330 334 330 330
101 91 92 97 93 89 89 87 86 86 88 91 90 93 90 88 84 79 74 77 77 77 78 75 75 71 66 63 65 59 58 57 43 42 42 35 28 29 18 12 354 3 22 359 344 342 352 6 3 3 356 354 353 349 345 337 329 334 330 329 325 323 325 326 322 321 319 320 321 322 321 324 325 325 325 327 328 328 326 328 327 329 328 327 325
104 102 97 100 99 94 95 94 91 91 89 93 96 96 93 89 85 83 82 79 80 79 79 79 76 76 68 67 67 64 60 57 53 43 42 39 30 18 8 345 251 353 349 335 313 339 347 357 2 357 353 352 350 346 339 334 333 332 330 326 321 318 318 320 320 319 316 313 314 317 320 321 321 320 321 323 324 324 322 323 326 326 322 322 323
113 111 110 112 111 109 107 103 98 95 100 98 95 93 91 90 89 86 82 78 76 77 76 70 69 71 74 69 68 65 63 59 51 49 45 41 26 13 6 342 347 349 10 351 1 337 351 352 351 350 346 345 343 341 335 329 327 325 324 322 316 312 311 313 317 316 313 311 309 314 317 317 317 317 318 319 320 319 320 320 321 316 317 317 317
123 118 123 119 109 106 103 100 101 105 102 97 97 95 96 97 93 91 88 85 83 80 78 75 71 71 72 73 67 67 66 56 54 49 42 36 29 17 351 358 274 357 14 356 12 3 17 358 348 342 342 343 338 334 333 329 323 321 319 314 306 305 307 308 308 310 312 309 307 309 310 311 311 313 314 314 313 314 314 316 313 315 314 313 312
122 120 123 116 111 109 108 110 113 109 104 102 100 98 97 99 96 94 90 86 83 80 77 75 72 69 68 70 73 67 63 58 55 53 51 46 37 21 15 7 3 2 2 7 0 43 341 338 349 350 347 342 338 333 330 328 319 322 322 314 312 306 300 303 306 309 309 307 305 305 304 304 305 305 305 304 308 310 313 313 313 312 311 309 308
119 124 122 122 117 113 113 113 113 110 107 106 107 106 106 105 102 98 94 90 89 85 84 78 74 70 69 70 71 66 62 60 59 58 54 48 44 37 29 27 11 354 349 353 1 6 5 348 338 347 345 344 336 333 326 320 324 327 320 319 313 308 305 302 304 304 302 300 301 301 302 302 303 302 304 308 312 312 311 311 310 308 307 306 306
122 121 122 119 119 119 119 119 115 112 109 109 112 111 109 105 104 102 96 93 88 84 81 79 77 71 70 67 70 71 66 64 62 59 53 49 47 43 35 34 13 359 351 334 353 343 342 352 341 338 340 336 333 329 326 324 322 319 319 315 311 305 305 305 301 297 291 294 296 298 297 298 298 305 309 311 311 311 310 308 308 306 305 305 304
125 126 125 123 119 121 122 121 118 115 115 115 114 113 111 106 105 101 100 99 94 89 82 80 75 74 72 72 72 74 68 65 64 54 49 44 41 37 36 29 19 7 351 332 322 330 324 333 339 332 334 332 331 323 319 316 315 314 313 310 307 305 303 301 297 291 290 291 292 294 295 295 301 305 308 308 308 308 308 308 307 306 305 303 303
131 132 130 128 127 124 125 124 122 120 120 118 119 115 113 111 110 108 106 101 95 89 83 80 79 79 80 80 79 77 71 66 59 52 46 39 33 33 28 15 21 3 337 325 315 332 338 323 327 325 325 326 324 318 314 314 315 313 310 308 306 306 304 300 295 296 298 299 296 298 305 310 304 300 299 302 305 307 307 307 308 306 303 303 304
133 134 132 133 132 130 130 129 127 127 124 122 121 120 119 115 116 113 109 104 96 90 88 83 86 88 88 84 76 69 63 62 56 46 42 36 27 25 19 7 8 350 323 313 304 306 325 320 317 318 326 323 321 321 321 317 314 312 311 307 308 308 306 309 308 311 310 307 305 302 300 302 300 300 300 304 306 304 304 305 302 300 300 297 295
136 135 135 135 134 132 133 135 134 133 130 127 126 125 122 121 117 114 112 104 98 96 97 94 92 92 88 85 78 67 59 54 47 44 37 26 20 20 11 360 357 356 335 321 315 312 315 327 320 324 323 325 322 326 322 320 318 318 313 310 311 312 314 318 323 322 321 312 306 305 304 301 300 301 304 301 299 298 297 294 293 291 288 289 288
141 138 135 133 136 136 137 138 138 135 134 131 133 131 128 126 122 116 113 106 104 103 102 98 97 93 88 81 74 67 54 53 45 40 30 24 16 15 10 359 356 354 349 328 324 318 321 326 328 325 328 332 320 327 326 323 322 321 317 315 313 318 323 329 326 322 320 322 319 313 306 302 300 299 297 296 293 292 289 289 288 286 285 284 284
137 137 135 137 138 139 138 141 141 139 138 137 137 136 134 130 125 121 116 114 111 110 105 103 102 98 89 79 70 59 49 48 42 36 26 20 10 8 358 354 350 349 345 336 327 328 325 323 326 330 335 330 324 324 326 322 318 318 316 318 323 328 332 329 323 322 322 323 318 311 308 304 300 298 296 292 291 289 289 287 287 286 284 280 277
136 129 136 138 138 143 143 144 145 144 143 142 143 141 137 132 129 125 122 119 114 108 106 106 104 94 85 78 65 49 40 42 34 29 25 13 8 360 356 356 348 350 340 337 340 325 324 323 333 331 333 326 324 321 322 322 324 323 323 322 326 333 334 330 328 325 324 322 314 312 309 307 304 298 294 290 289 289 288 289 288 287 286 282 278
136 137 135 139 144 148 149 151 150 150 149 148 146 145 141 137 132 130 129 124 118 111 107 107 102 93 82 71 58 44 36 34 31 26 17 10 3 360 358 356 353 348 342 341 338 332 325 326 324 326 325 326 322 321 328 330 327 326 326 328 327 330 336 337 334 325 323 320 318 317 317 312 306 304 302 298 294 292 291 290 289 288 287 285 280
140 144 143 148 154 154 152 153 154 153 152 151 149 148 145 142 138 136 134 132 124 119 116 107 102 92 75 62 50 36 36 32 27 20 9 3 356 357 1 355 354 348 343 341 338 333 326 325 325 326 336 333 331 330 335 333 330 329 331 332 327 331 333 329 329 332 328 327 329 327 324 319 318 316 309 308 301 294 290 285 285 285 286 285 282
146 146 149 148 151 153 152 153 155 155 155 155 152 150 152 151 149 145 144 140 135 127 120 112 103 90 71 55 46 39 34 29 24 17 5 356 350 355 2 354 352 347 343 341 339 335 333 329 329 334 333 337 334 334 337 335 329 332 331 336 337 335 332 333 332 330 331 329 327 324 321 315 312 316 318 308 302 294 293 291 286 283 280 282 283
150 152 152 152 148 150 150 154 153 155 154 155 155 157 159 159 157 155 152 150 144 138 130 119 110 96 75 58 49 43 38 39 25 17 7 356 352 358 2 355 352 346 343 342 339 339 339 338 338 340 340 336 342 336 333 335 336 336 342 336 331 332 333 335 331 329 331 331 331 331 330 328 324 322 318 315 309 311 308 303 301 298 298 290 286
145 150 150 150 149 149 150 152 155 157 160 159 159 161 162 166 165 163 163 159 153 146 139 129 124 110 86 64 51 45 46 42 37 24 19 357 355 358 1 355 351 344 341 341 341 341 339 339 344 343 339 344 344 343 342 346 345 336 331 337 332 332 333 330 329 333 332 331 332 331 332 330 324 320 322 320 321 320 314 306 302 290 298 319 311
147 147 151 153 154 155 154 156 158 162 163 158 151 160 166 168 173 170 169 165 162 154 147 140 134 119 90 72 67 53 42 35 31 10 1 7 0 1 358 358 350 345 342 340 340 343 339 341 346 342 345 344 344 343 340 340 334 330 335 338 335 334 332 330 327 333 339 337 332 329 329 331 324 318 318 318 317 319 317 314 313 320 313 302 290
151 154 157 158 158 158 160 160 163 166 163 156 152 167 170 171 175 178 175 171 168 162 160 154 139 128 102 68 64 60 46 26 23 354 357 7 354 352 353 349 345 346 347 339 339 336 339 339 340 343 344 341 340 338 342 338 336 332 333 333 335 335 335 333 330 329 338 336 328 325 325 330 326 318 318 316 318 316 312 311 315 306 295 287 281
157 159 161 163 157 155 156 162 164 165 164 140 161 165 173 179 187 177 176 171 173 171 170 165 152 138 85 61 68 73 44 20 356 6 8 6 354 350 346 337 330 332 263 321 329 334 337 333 336 341 341 344 332 339 342 338 335 329 329 334 339 336 333 331 328 325 325 331 331 329 326 328 326 322 317 318 314 311 310 307 300 297 297 294 287
157 163 166 158 159 158 161 163 164 162 160 150 167 167 174 182 180 180 174 174 178 178 177 177 166 145 63 53 53 71 62 341 358 15 5 6 7 355 338 341 359 7 340 314 253 291 322 319 330 329 341 335 332 336 336 330 327 325 328 331 341 338 335 331 330 326 327 334 331 332 328 329 331 325 319 316 316 315 311 307 310 304 294 290 289
160 161 160 161 158 163 166 166 161 158 156 157 170 172 174 172 172 187 167 175 182 179 181 173 171 149 78 52 35 49 42 28 29 10 8 10 4 4 7 8 360 355 348 349 343 330 328 322 323 322 323 330 323 324 324 327 330 331 330 330 338 335 337 335 328 327 329 336 339 335 324 329 331 324 320 320 319 314 309 307 303 300 296 289 289
164 164 164 164 162 164 165 163 158 156 144 152 170 171 168 163 165 180 157 161 170 171 168 166 166 135 112 86 56 56 40 35 45 5 6 6 4 5 5 5 3 352 356 357 352 341 331 322 320 313 314 317 320 315 318 325 327 323 321 320 331 336 332 326 323 322 325 336 340 344 329 325 329 324 321 322 322 314 311 309 305 303 298 291 285
154 150 153 162 161 164 164 164 159 154 143 159 166 169 163 157 163 174 162 164 166 165 163 164 161 143 127 100 83 77 45 49 46 23 16 343 3 6 2 360 358 356 4 356 329 310 303 312 314 313 311 305 301 302 306 312 323 324 317 316 334 340 336 334 331 329 328 335 346 348 332 324 327 324 321 323 321 319 317 313 312 308 309 312 301
153 164 165 167 166 163 164 170 163 151 151 168 171 170 163 161 175 173 165 174 167 167 167 162 159 145 141 119 115 83 72 58 35 9 16 337 4 4 3 356 355 355 2 351 337 327 325 314 303 292 292 293 296 300 302 306 317 317 325 333 350 347 344 339 336 335 333 335 347 351 333 323 330 327 324 328 328 320 319 319 321 320 310 297 290
167 170 165 164 165 166 168 171 166 156 154 157 173 173 165 175 185 174 178 179 171 171 163 167 165 152 107 91 72 138 66 65 19 5 6 338 2 1 357 353 355 360 356 350 341 334 325 313 304 302 297 295 296 298 305 322 325 329 346 344 343 348 344 341 336 339 332 337 348 349 333 330 327 331 330 329 326 326 323 325 324 320 318 314 307
163 163 167 166 167 167 170 167 152 155 152 154 175 175 173 177 189 184 183 178 176 176 174 170 174 160 144 147 128 14 31 29 347 347 12 347 351 353 347 344 350 353 355 337 335 331 330 328 328 326 318 315 314 323 326 320 324 334 344 335 333 351 349 345 343 340 338 341 348 349 337 334 337 338 339 334 333 325 331 329 330 327 324 322 319